{"data":{"norad_id":62160,"epoch":"2026-09-21T01:03:33.954336Z","epoch_age_seconds":135271,"freshness":"FRESH","line1":"1 62160U 24224X   26264.04414299  .00010210  00000+0  37984-3 0  9999","line2":"2 62160  43.0022 135.1251 0001704 263.6033  96.4625 15.27598358102357","mean_motion":15.27598358,"eccentricity":0.0001704,"inclination_deg":43.0022,"raan_deg":135.1251,"arg_perigee_deg":263.6033,"mean_anomaly_deg":96.4625,"bstar":0.00037984,"rev_number":10235,"period_min":94.265615857647,"perigee_km":481.82498939001,"apogee_km":484.1632628778,"semimajor_km":6861.1311261339,"source":"CELESTRAK","updated_at":"2026-09-22T09:00:49.533679Z"}}